FIN4CE EGLL-EFHK

Flight info

Callsign FIN4CE
Flight time N/A
Altitude 39000
Route BPK Q295 MATCH P144 SAMHO DCT LARGA DCT SOPTO DCT AMRAM DCT INVOL DCT ELRID DCT RIRIP Y364 LAKUT
Aircraft A359/H-SABDE1E2E3FGHIJ2J3J4J5M1P2RWXY/LB2D1

Departure

Time N/A
Airport London Heathrow Airport (EGLL)

Arrival

Time 2026-04-23 17:29
Airport Helsinki Vantaa Airport (EFHK)
Time Latitude Longitude Altitude Speed Heading
2026-04-23 16:20 57.38394 10.43486 39198 ft 491 kts 53°
2026-04-23 16:20 57.40243 10.48783 39143 ft 489 kts 53°
2026-04-23 16:20 57.43943 10.59412 39148 ft 490 kts 53°
2026-04-23 16:21 57.47615 10.70001 39161 ft 490 kts 53°
2026-04-23 16:21 57.51301 10.80675 39150 ft 491 kts 53°
2026-04-23 16:22 57.54980 10.91383 39155 ft 491 kts 53°
2026-04-23 16:22 57.58641 11.02087 39151 ft 489 kts 53°
2026-04-23 16:23 57.62288 11.12791 39151 ft 488 kts 53°
2026-04-23 16:23 57.65909 11.23468 39151 ft 488 kts 53°
2026-04-23 16:24 57.69374 11.34422 39158 ft 490 kts 56°
2026-04-23 16:24 57.72701 11.45521 39136 ft 491 kts 56°
2026-04-23 16:25 57.76059 11.56690 39133 ft 491 kts 56°
2026-04-23 16:25 57.79422 11.67803 39132 ft 491 kts 56°
2026-04-23 16:26 57.82179 11.76916 39129 ft 491 kts 56°
2026-04-23 16:26 57.85543 11.88085 39132 ft 492 kts 56°
2026-04-23 16:27 57.88899 11.99284 39129 ft 492 kts 56°
2026-04-23 16:27 57.92234 12.10470 39135 ft 491 kts 56°
2026-04-23 16:28 57.95572 12.21715 39124 ft 492 kts 56°
2026-04-23 16:28 57.98898 12.32982 39129 ft 491 kts 56°
2026-04-23 16:29 58.02191 12.44197 39120 ft 487 kts 56°
2026-04-23 16:29 58.05448 12.55334 39118 ft 487 kts 56°
2026-04-23 16:30 58.08715 12.66558 39114 ft 487 kts 56°
2026-04-23 16:30 58.11958 12.77754 39115 ft 487 kts 56°
2026-04-23 16:31 58.15204 12.89015 39114 ft 487 kts 56°
2026-04-23 16:31 58.18429 13.00259 39106 ft 487 kts 56°
2026-04-23 16:32 58.21656 13.11571 39114 ft 485 kts 56°
2026-04-23 16:32 58.24854 13.22835 39108 ft 483 kts 56°
2026-04-23 16:33 58.28037 13.34097 39096 ft 483 kts 56°
2026-04-23 16:33 58.31194 13.45317 39089 ft 483 kts 56°
2026-04-23 16:34 58.34352 13.56604 39099 ft 483 kts 56°
2026-04-23 16:34 58.37492 13.67879 39094 ft 483 kts 56°
2026-04-23 16:35 58.40641 13.79242 39092 ft 484 kts 56°
2026-04-23 16:35 58.43768 13.90589 39091 ft 481 kts 56°
2026-04-23 16:36 58.46850 14.01823 39092 ft 480 kts 56°
2026-04-23 16:36 58.49948 14.13169 39062 ft 481 kts 56°
2026-04-23 16:37 58.53034 14.24528 39085 ft 481 kts 56°
2026-04-23 16:37 58.56104 14.35893 39047 ft 479 kts 56°
2026-04-23 16:38 58.59134 14.47161 39048 ft 478 kts 56°
2026-04-23 16:38 58.62178 14.58532 39067 ft 478 kts 56°
2026-04-23 16:39 58.65190 14.69855 39056 ft 474 kts 56°
2026-04-23 16:39 58.68179 14.81138 39059 ft 473 kts 56°
2026-04-23 16:40 58.71141 14.92364 39062 ft 473 kts 56°
2026-04-23 16:40 58.74116 15.03707 39074 ft 472 kts 56°
2026-04-23 16:41 58.77034 15.14900 39062 ft 470 kts 56°
2026-04-23 16:41 58.79965 15.26186 39063 ft 469 kts 56°
2026-04-23 16:42 58.82866 15.37412 39049 ft 469 kts 56°
2026-04-23 16:42 58.85756 15.48663 39044 ft 466 kts 56°
2026-04-23 16:43 58.88635 15.59920 39043 ft 466 kts 56°
2026-04-23 16:43 58.91487 15.71122 39034 ft 466 kts 56°
2026-04-23 16:44 58.94349 15.82425 39035 ft 467 kts 56°
2026-04-23 16:44 58.97197 15.93724 39032 ft 468 kts 56°
2026-04-23 16:45 59.00045 16.05091 39023 ft 469 kts 56°
2026-04-23 16:45 59.02886 16.16491 39040 ft 469 kts 56°
2026-04-23 16:46 59.05719 16.27918 39012 ft 469 kts 56°
2026-04-23 16:46 59.08539 16.39347 39020 ft 469 kts 56°
2026-04-23 16:47 59.11353 16.50812 39015 ft 469 kts 56°
2026-04-23 16:47 59.14143 16.62227 39002 ft 471 kts 57°
2026-04-23 16:48 59.16960 16.73823 39017 ft 473 kts 57°
2026-04-23 16:48 59.19763 16.85432 39004 ft 473 kts 57°
2026-04-23 16:49 59.22560 16.97080 39002 ft 472 kts 57°
2026-04-23 16:49 59.25310 17.08600 38998 ft 469 kts 57°
2026-04-23 16:50 59.28063 17.20173 38996 ft 469 kts 57°
2026-04-23 16:50 59.30810 17.31778 39008 ft 469 kts 57°
2026-04-23 16:51 59.33529 17.43339 38989 ft 468 kts 57°
2026-04-23 16:51 59.36247 17.54962 38991 ft 468 kts 57°
2026-04-23 16:52 59.38937 17.66522 38989 ft 468 kts 57°
2026-04-23 16:52 59.41640 17.78200 38996 ft 468 kts 57°
2026-04-23 16:53 59.44324 17.89865 38996 ft 467 kts 57°
2026-04-23 16:53 59.46975 18.01444 38995 ft 467 kts 57°
2026-04-23 16:54 59.49638 18.13139 39002 ft 467 kts 58°
2026-04-23 16:54 59.52294 18.24864 38974 ft 468 kts 58°
2026-04-23 16:55 59.54920 18.36525 38974 ft 468 kts 58°
2026-04-23 16:55 59.57557 18.48301 38980 ft 468 kts 58°
2026-04-23 16:56 59.60221 18.60057 38982 ft 467 kts 57°
2026-04-23 16:56 59.62873 18.71747 38984 ft 465 kts 57°
2026-04-23 16:57 59.65489 18.83353 38989 ft 465 kts 58°
2026-04-23 16:57 59.68110 18.95064 39004 ft 465 kts 57°
2026-04-23 16:58 59.70727 19.06833 38989 ft 465 kts 58°
2026-04-23 16:58 59.73312 19.18525 38982 ft 466 kts 58°
2026-04-23 16:59 59.75903 19.30314 38980 ft 466 kts 58°
2026-04-23 16:59 59.78469 19.42050 38974 ft 466 kts 58°
2026-04-23 17:00 59.81039 19.53872 38977 ft 466 kts 58°
2026-04-23 17:00 59.83605 19.65739 38972 ft 466 kts 58°
2026-04-23 17:01 59.86156 19.77609 38978 ft 466 kts 58°
2026-04-23 17:01 59.88687 19.89448 38966 ft 468 kts 58°
2026-04-23 17:02 59.91230 20.01417 38964 ft 468 kts 58°
2026-04-23 17:02 59.93757 20.13382 38965 ft 468 kts 58°
2026-04-23 17:03 59.96281 20.25398 38976 ft 469 kts 59°
2026-04-23 17:03 59.98776 20.37346 38961 ft 468 kts 59°
2026-04-23 17:04 60.01275 20.49387 38794 ft 468 kts 59°
2026-04-23 17:04 60.02098 20.53374 38651 ft 467 kts 59°
2026-04-23 17:04 60.03338 20.59390 38375 ft 467 kts 59°
2026-04-23 17:05 60.04575 20.65402 38092 ft 467 kts 59°
2026-04-23 17:05 60.05803 20.71389 37815 ft 466 kts 59°
2026-04-23 17:05 60.07039 20.77435 37535 ft 466 kts 59°
2026-04-23 17:05 60.08264 20.83447 37253 ft 466 kts 59°
2026-04-23 17:06 60.09486 20.89460 36989 ft 465 kts 59°
2026-04-23 17:06 60.10690 20.95400 36726 ft 465 kts 59°
2026-04-23 17:06 60.11904 21.01415 36346 ft 461 kts 59°
2026-04-23 17:06 60.13099 21.07368 35778 ft 458 kts 58°
2026-04-23 17:07 60.14285 21.13287 35180 ft 456 kts 58°
2026-04-23 17:07 60.15472 21.19212 34477 ft 456 kts 58°
2026-04-23 17:07 60.16659 21.25146 33742 ft 456 kts 58°
2026-04-23 17:07 60.17832 21.31027 33009 ft 454 kts 58°
2026-04-23 17:08 60.18993 21.36872 32297 ft 452 kts 58°
2026-04-23 17:08 60.20071 21.42810 31830 ft 454 kts 64°
2026-04-23 17:08 60.20847 21.48976 31411 ft 451 kts 66°
2026-04-23 17:08 60.21541 21.55113 30933 ft 447 kts 67°
2026-04-23 17:09 60.22190 21.61203 30446 ft 443 kts 68°
2026-04-23 17:09 60.22809 21.67177 29993 ft 438 kts 68°
2026-04-23 17:09 60.23420 21.73160 29476 ft 433 kts 68°
2026-04-23 17:09 60.24020 21.79052 29019 ft 427 kts 68°
2026-04-23 17:10 60.24613 21.84879 28575 ft 421 kts 68°
2026-04-23 17:10 60.25200 21.90634 28139 ft 417 kts 68°
2026-04-23 17:10 60.25785 21.96348 27729 ft 415 kts 67°
2026-04-23 17:10 60.26275 22.02067 27377 ft 413 kts 72°
2026-04-23 17:11 60.26424 22.07857 26449 ft 418 kts 79°
2026-04-23 17:11 60.26397 22.13805 25142 ft 428 kts 81°
2026-04-23 17:11 60.26326 22.19804 23855 ft 436 kts 82°
2026-04-23 17:11 60.26241 22.25955 22468 ft 441 kts 83°
2026-04-23 17:12 60.26146 22.32128 21302 ft 440 kts 83°
2026-04-23 17:12 60.26044 22.38188 20719 ft 424 kts 83°
2026-04-23 17:12 60.25944 22.44048 20195 ft 414 kts 83°
2026-04-23 17:12 60.25853 22.49817 19666 ft 410 kts 83°
2026-04-23 17:13 60.25762 22.55470 19128 ft 406 kts 83°
2026-04-23 17:13 60.25668 22.61199 18610 ft 403 kts 83°
2026-04-23 17:13 60.25573 22.66769 18098 ft 401 kts 83°
2026-04-23 17:13 60.25475 22.72355 17513 ft 397 kts 83°
2026-04-23 17:14 60.25375 22.77893 16990 ft 392 kts 83°
2026-04-23 17:14 60.25274 22.83361 16473 ft 387 kts 84°
2026-04-23 17:14 60.25172 22.88751 15960 ft 383 kts 84°
2026-04-23 17:14 60.25070 22.94097 15456 ft 379 kts 84°
2026-04-23 17:15 60.24967 22.99375 14962 ft 375 kts 84°
2026-04-23 17:15 60.24863 23.04539 14474 ft 372 kts 84°
2026-04-23 17:15 60.24758 23.09716 13980 ft 368 kts 84°
2026-04-23 17:15 60.24651 23.14855 13457 ft 365 kts 85°
2026-04-23 17:16 60.24543 23.19944 12957 ft 360 kts 85°
2026-04-23 17:16 60.24435 23.24897 12467 ft 355 kts 85°
2026-04-23 17:16 60.24325 23.29888 11979 ft 350 kts 85°
2026-04-23 17:16 60.24218 23.34687 11520 ft 346 kts 85°
2026-04-23 17:17 60.24107 23.39478 11259 ft 336 kts 85°
2026-04-23 17:17 60.23997 23.44071 11142 ft 321 kts 85°
2026-04-23 17:17 60.23889 23.48479 11025 ft 308 kts 85°
2026-04-23 17:17 60.23784 23.52705 10906 ft 295 kts 85°
2026-04-23 17:18 60.23595 23.60679 10506 ft 279 kts 84°
2026-04-23 17:18 60.23503 23.64578 10186 ft 276 kts 85°
2026-04-23 17:18 60.23412 23.68460 9937 ft 283 kts 85°
2026-04-23 17:19 60.23322 23.72445 9870 ft 293 kts 85°
2026-04-23 17:19 60.23218 23.76571 9838 ft 295 kts 86°
2026-04-23 17:19 60.23111 23.80684 9391 ft 295 kts 86°
2026-04-23 17:19 60.23004 23.84808 8875 ft 295 kts 86°
2026-04-23 17:20 60.22895 23.88926 8469 ft 293 kts 87°
2026-04-23 17:20 60.22671 23.97047 7660 ft 287 kts 88°
2026-04-23 17:21 60.22451 24.04981 7046 ft 279 kts 88°
2026-04-23 17:21 60.22344 24.08841 6813 ft 279 kts 89°
2026-04-23 17:21 60.22125 24.16569 6192 ft 275 kts 89°
2026-04-23 17:22 60.22016 24.20335 5882 ft 273 kts 89°
2026-04-23 17:22 60.21792 24.27958 5262 ft 271 kts 90°
2026-04-23 17:23 60.21570 24.35459 4677 ft 270 kts 90°
2026-04-23 17:23 60.21457 24.39226 4365 ft 269 kts 90°
2026-04-23 17:23 60.21226 24.46692 3797 ft 264 kts 90°
2026-04-23 17:24 60.21112 24.50278 3708 ft 250 kts 90°
2026-04-23 17:24 60.21003 24.53677 3609 ft 237 kts 90°
2026-04-23 17:24 60.20854 24.59946 3425 ft 212 kts 85°
2026-04-23 17:25 60.21277 24.65478 3265 ft 195 kts 69°
2026-04-23 17:25 60.21752 24.68029 3000 ft 193 kts 61°
2026-04-23 17:26 60.23114 24.72404 2596 ft 179 kts 45°
2026-04-23 17:26 60.24759 24.76105 2111 ft 176 kts 44°
2026-04-23 17:27 60.26318 24.79505 1651 ft 155 kts 44°
2026-04-23 17:27 60.27043 24.81091 1443 ft 153 kts 44°
2026-04-23 17:27 60.27733 24.82605 1215 ft 143 kts 43°
2026-04-23 17:27 60.28382 24.84023 1012 ft 134 kts 44°
2026-04-23 17:28 60.29011 24.85401 811 ft 133 kts 43°
2026-04-23 17:28 60.29644 24.86782 653 ft 135 kts 43°
2026-04-23 17:28 60.30289 24.88193 479 ft 138 kts 44°
2026-04-23 17:28 60.30933 24.89596 295 ft 136 kts 42°
2026-04-23 17:29 60.31571 24.91001 152 ft 131 kts 45°
2026-04-23 17:29 60.32119 24.92195 165 ft 101 kts 47°
2026-04-23 17:29 60.32804 24.93710 203 ft 49 kts 47°
2026-04-23 17:30 60.32954 24.94039 207 ft 44 kts 47°
2026-04-23 17:30 60.33045 24.94578 190 ft 10 kts 94°
2026-04-23 17:30 60.32991 24.94731 191 ft 19 kts 136°
2026-04-23 17:31 60.32870 24.94927 181 ft 25 kts 158°
2026-04-23 17:31 60.32697 24.95040 194 ft 27 kts 162°
2026-04-23 17:31 60.32509 24.95162 199 ft 29 kts 162°
2026-04-23 17:31 60.32337 24.95282 183 ft 24 kts 152°
2026-04-23 17:32 60.32236 24.95457 181 ft 16 kts 137°
2026-04-23 17:32 60.32202 24.95522 180 ft 8 kts 137°
2026-04-23 17:32 60.32152 24.95613 179 ft 12 kts 137°
2026-04-23 17:32 60.32069 24.95767 180 ft 16 kts 137°
2026-04-23 17:33 60.31986 24.95922 178 ft 15 kts 137°
2026-04-23 17:33 60.31904 24.95905 176 ft 14 kts 228°
2026-04-23 17:33 60.31832 24.95746 175 ft 17 kts 227°
2026-04-23 17:33 60.31749 24.95564 177 ft 18 kts 227°
2026-04-23 17:34 60.31659 24.95364 176 ft 21 kts 227°
2026-04-23 17:34 60.31559 24.95144 176 ft 19 kts 227°
2026-04-23 17:34 60.31426 24.95019 173 ft 13 kts 129°
2026-04-23 17:35 60.31354 24.95167 173 ft 16 kts 137°
2026-04-23 17:35 60.31326 24.95219 173 ft 17 kts 137°
2026-04-23 17:35 60.31292 24.95283 172 ft 14 kts 137°
2026-04-23 17:36 60.31222 24.95412 172 ft 10 kts 137°
2026-04-23 17:36 60.31217 24.95421 172 ft 3 kts 137°
2026-04-23 17:36 60.31190 24.95471 172 ft 7 kts 137°
2026-04-23 17:36 60.31158 24.95558 173 ft 8 kts 99°
2026-04-23 17:37 60.31189 24.95655 173 ft 10 kts 47°
2026-04-23 17:37 60.31236 24.95786 173 ft 13 kts 79°
2026-04-23 17:37 60.31259 24.96055 173 ft 1 kts 64°
2026-04-23 17:38 60.31248 24.96106 173 ft 7 kts 128°
2026-04-23 17:38 60.31233 24.96134 173 ft 2 kts 136°
2026-04-23 17:38 60.31218 24.96164 173 ft 5 kts 136°
2026-04-23 17:38 60.31211 24.96176 173 ft 0 kts 137°